Flag for U.S.A. Weather past 2 weeks in Salt Lake City, Utah, U.S.A.

Now
59 °F

Sunny.


Feels Like: 59 °F
Forecast: 46 / 73 °F
Wind: No wind

Location: Salt Lake City International Airport

Current Time: Apr 20, 2015 at 9:24:42 PM

Latest Report: Apr 20, 2015 at 8:53 PM


Visibility: 10 mi

Pressure: 29.79 "Hg

Humidity: 33%

Dew point: 30 °F

Location of Salt Lake CityLocation

Historic Weather in Salt Lake City — Graph

°F

Salt Lake City temperature yesterday

Maximum temperature yesterday: 67 °F (at 4:53 PM)
Minimum temperature yesterday: 44 °F (at 6:53 AM)
Average temperature yesterday: 56 °F

Past Weeks' High & Low Weather Summary

 TemperatureHumidityPressure
High76 °F (Apr 14, 1:53 PM)100% (Apr 14, 8:53 PM)30.18 "Hg (Apr 14, 8:53 PM)
Low29 °F (Apr 15, 6:53 AM)9% (Apr 14, 12:53 PM)29.44 "Hg (Apr 5, 7:53 PM)
Average51 °F48%29.91 "Hg
* Reported Apr 5 7:53 PM — Apr 20 7:53 PM, Salt Lake City, Weather by CustomWeather, © 2015

Note: Actual official high and low records may vary slightly from our data, if they occured in-between our weather recording intervals... More about our weather records

Advertising

Salt Lake City weather history for previous 24 hours

 ConditionsComfort  
Time TempWeatherWind HumidityBarometerVisibility
7:53 PM
Mon, Apr 20
64 °FPassing clouds.7 mph23%29.78 "Hg10 mi
6:53 PM67 °FPassing clouds.8 mph18%29.78 "Hg10 mi
5:53 PM68 °FPassing clouds.10 mph18%29.78 "Hg10 mi
4:53 PM69 °FPassing clouds.10 mph17%29.78 "Hg10 mi
3:53 PM69 °FPassing clouds.12 mph17%29.80 "Hg10 mi
2:53 PM67 °FPassing clouds.9 mph16%29.81 "Hg10 mi
1:53 PM66 °FPassing clouds.8 mph19%29.83 "Hg10 mi
12:53 PM64 °FPassing clouds.8 mph27%29.85 "Hg10 mi
11:53 AM62 °FPassing clouds.7 mph31%29.86 "Hg10 mi
10:53 AM59 °FPassing clouds.5 mph32%29.86 "Hg10 mi
9:53 AM57 °FPassing clouds.No wind41%29.87 "Hg10 mi
8:53 AM52 °FPassing clouds.No wind49%29.88 "Hg10 mi
7:53 AM48 °FPassing clouds.No wind59%29.88 "Hg10 mi
6:53 AM45 °FPassing clouds.5 mph65%29.86 "Hg10 mi
5:53 AM45 °FClear.3 mph65%29.85 "Hg10 mi
4:53 AM46 °FPassing clouds.3 mph63%29.84 "Hg10 mi
3:53 AM47 °FClear.5 mph61%29.84 "Hg10 mi
2:53 AM50 °FClear.3 mph50%29.84 "Hg10 mi
1:53 AM50 °FPassing clouds.No wind57%29.85 "Hg10 mi
12:53 AM52 °FPassing clouds.3 mph53%29.85 "Hg10 mi
11:53 PM
Sun, Apr 19
55 °FPassing clouds.5 mph44%29.84 "Hg10 mi
10:53 PM58 °FPassing clouds.No wind35%29.83 "Hg10 mi
9:53 PM59 °FPassing clouds.No wind35%29.85 "Hg10 mi
Weather by CustomWeather, © 2015

See weather overviewHow to use our weather pages